VRG1039 SBPA-SBFL

Flight info

Callsign VRG1039
Flight time 0h 42m
Altitude 27000
Route ANLER UM540 DADMO
Aircraft B739/M-SDE2E3FGHIRWXY/LB1

Departure

Time 2026-04-15 20:51
Airport Porto Alegre-Salgado Filho International Airport (SBPA)

Arrival

Time 2026-04-15 21:33
Airport Hercílio Luz International Airport (SBFL)
Time Latitude Longitude Altitude Speed Heading
2026-04-15 20:39 -29.99098 -51.17684 18 ft 0 kts
2026-04-15 20:42 -29.99107 -51.17685 18 ft 2 kts
2026-04-15 20:42 -29.99124 -51.17688 22 ft 2 kts
2026-04-15 20:42 -29.99140 -51.17689 19 ft 2 kts
2026-04-15 20:42 -29.99157 -51.17687 20 ft 2 kts 338°
2026-04-15 20:43 -29.99168 -51.17675 21 ft 2 kts 279°
2026-04-15 20:43 -29.99169 -51.17667 21 ft 0 kts 273°
2026-04-15 20:46 -29.99170 -51.17670 21 ft 3 kts 262°
2026-04-15 20:46 -29.99203 -51.17696 20 ft 6 kts 195°
2026-04-15 20:46 -29.99247 -51.17701 18 ft 6 kts 187°
2026-04-15 20:47 -29.99279 -51.17729 20 ft 6 kts 248°
2026-04-15 20:47 -29.99284 -51.17778 18 ft 6 kts 269°
2026-04-15 20:47 -29.99284 -51.17827 19 ft 6 kts 271°
2026-04-15 20:47 -29.99283 -51.17875 19 ft 6 kts 271°
2026-04-15 20:48 -29.99282 -51.17922 19 ft 6 kts 271°
2026-04-15 20:48 -29.99283 -51.17976 19 ft 10 kts 264°
2026-04-15 20:48 -29.99301 -51.18055 19 ft 10 kts 249°
2026-04-15 20:48 -29.99328 -51.18130 19 ft 10 kts 247°
2026-04-15 20:49 -29.99354 -51.18203 20 ft 10 kts 248°
2026-04-15 20:49 -29.99397 -51.18256 19 ft 7 kts 213°
2026-04-15 20:49 -29.99435 -51.18246 20 ft 7 kts 127°
2026-04-15 20:49 -29.99440 -51.18194 20 ft 7 kts 95°
2026-04-15 20:50 -29.99443 -51.18124 21 ft 17 kts 91°
2026-04-15 20:50 -29.99450 -51.17664 21 ft 98 kts 91°
2026-04-15 20:50 -29.99471 -51.16605 20 ft 163 kts 91°
2026-04-15 20:50 -29.99527 -51.15179 434 ft 183 kts 92°
2026-04-15 20:51 -29.99578 -51.13707 1262 ft 183 kts 91°
2026-04-15 20:51 -29.99600 -51.12237 1429 ft 181 kts 90°
2026-04-15 20:51 -29.99614 -51.10808 1564 ft 181 kts 90°
2026-04-15 20:51 -29.99631 -51.09241 1785 ft 210 kts 90°
2026-04-15 20:52 -29.99654 -51.07478 1917 ft 223 kts 90°
2026-04-15 20:52 -29.99681 -51.05699 2010 ft 222 kts 89°
2026-04-15 20:52 -29.99711 -51.03852 2136 ft 243 kts 89°
2026-04-15 20:52 -29.99743 -51.01910 2212 ft 240 kts 90°
2026-04-15 20:53 -29.99776 -50.99971 2357 ft 242 kts 90°
2026-04-15 20:53 -29.99811 -50.98024 2475 ft 240 kts 89°
2026-04-15 20:53 -29.99843 -50.96099 2614 ft 243 kts 89°
2026-04-15 20:53 -29.99767 -50.94134 2726 ft 246 kts 73°
2026-04-15 20:54 -29.98951 -50.92468 2825 ft 241 kts 43°
2026-04-15 20:54 -29.97498 -50.91465 2993 ft 249 kts 19°
2026-04-15 20:54 -29.95798 -50.91316 3114 ft 244 kts 356°
2026-04-15 20:54 -29.94133 -50.91079 3199 ft 246 kts 27°
2026-04-15 20:55 -29.92716 -50.89960 3370 ft 251 kts 35°
2026-04-15 20:55 -29.91306 -50.88771 3493 ft 248 kts 34°
2026-04-15 20:55 -29.89886 -50.87608 3613 ft 252 kts 34°
2026-04-15 20:55 -29.88479 -50.86480 3717 ft 245 kts 33°
2026-04-15 20:56 -29.87068 -50.85366 3843 ft 252 kts 33°
2026-04-15 20:56 -29.85598 -50.84221 3970 ft 252 kts 33°
2026-04-15 20:56 -29.84162 -50.83111 4095 ft 250 kts 32°
2026-04-15 20:56 -29.82686 -50.81976 4217 ft 254 kts 32°
2026-04-15 20:57 -29.81222 -50.80851 4338 ft 253 kts 32°
2026-04-15 20:57 -29.79749 -50.79719 4487 ft 255 kts 32°
2026-04-15 20:57 -29.78266 -50.78575 4603 ft 258 kts 32°
2026-04-15 20:57 -29.76788 -50.77431 4718 ft 251 kts 32°
2026-04-15 20:58 -29.75347 -50.76317 4834 ft 252 kts 32°
2026-04-15 20:58 -29.73865 -50.75172 4982 ft 260 kts 32°
2026-04-15 20:58 -29.72359 -50.74009 5087 ft 260 kts 32°
2026-04-15 20:58 -29.70874 -50.72862 5219 ft 262 kts 32°
2026-04-15 20:59 -29.69356 -50.71690 5334 ft 261 kts 32°
2026-04-15 20:59 -29.67844 -50.70524 5468 ft 263 kts 32°
2026-04-15 20:59 -29.66327 -50.69352 5580 ft 260 kts 32°
2026-04-15 20:59 -29.64826 -50.68194 5706 ft 261 kts 32°
2026-04-15 21:00 -29.63320 -50.67033 5820 ft 259 kts 32°
2026-04-15 21:00 -29.61813 -50.65872 5949 ft 263 kts 32°
2026-04-15 21:00 -29.60297 -50.64704 6077 ft 262 kts 32°
2026-04-15 21:00 -29.58778 -50.63534 6215 ft 264 kts 32°
2026-04-15 21:01 -29.57246 -50.62355 6339 ft 265 kts 32°
2026-04-15 21:01 -29.55717 -50.61178 6468 ft 265 kts 32°
2026-04-15 21:01 -29.54179 -50.59995 6563 ft 267 kts 32°
2026-04-15 21:01 -29.52647 -50.58801 6714 ft 264 kts 32°
2026-04-15 21:02 -29.51115 -50.57625 6818 ft 267 kts 32°
2026-04-15 21:02 -29.49577 -50.56449 6953 ft 261 kts 32°
2026-04-15 21:02 -29.48051 -50.55272 7065 ft 267 kts 34°
2026-04-15 21:02 -29.46619 -50.53962 7197 ft 267 kts 39°
2026-04-15 21:03 -29.45197 -50.52538 7441 ft 277 kts 39°
2026-04-15 21:03 -29.43745 -50.51066 8169 ft 280 kts 39°
2026-04-15 21:03 -29.42283 -50.49590 8956 ft 281 kts 39°
2026-04-15 21:03 -29.40799 -50.48101 9679 ft 287 kts 39°
2026-04-15 21:04 -29.39278 -50.46583 10324 ft 293 kts 39°
2026-04-15 21:04 -29.37686 -50.45001 10544 ft 315 kts 39°
2026-04-15 21:04 -29.35977 -50.43306 10781 ft 333 kts 39°
2026-04-15 21:04 -29.34200 -50.41544 11279 ft 341 kts 39°
2026-04-15 21:05 -29.32390 -50.39751 11833 ft 346 kts 39°
2026-04-15 21:05 -29.30561 -50.37942 12529 ft 347 kts 39°
2026-04-15 21:05 -29.28724 -50.36127 13179 ft 349 kts 39°
2026-04-15 21:05 -29.26842 -50.34362 13828 ft 351 kts 36°
2026-04-15 21:06 -29.24879 -50.32667 14341 ft 354 kts 35°
2026-04-15 21:06 -29.22882 -50.30987 14849 ft 358 kts 34°
2026-04-15 21:06 -29.20860 -50.29294 15360 ft 361 kts 34°
2026-04-15 21:06 -29.18817 -50.27578 15865 ft 365 kts 34°
2026-04-15 21:07 -29.16765 -50.25845 16372 ft 368 kts 34°
2026-04-15 21:07 -29.14692 -50.24088 16888 ft 372 kts 34°
2026-04-15 21:07 -29.12632 -50.22339 17356 ft 375 kts 34°
2026-04-15 21:07 -29.10529 -50.20550 17840 ft 379 kts 34°
2026-04-15 21:08 -29.08402 -50.18741 18319 ft 382 kts 34°
2026-04-15 21:08 -29.06258 -50.16918 18725 ft 386 kts 34°
2026-04-15 21:08 -29.04096 -50.15079 19140 ft 389 kts 34°
2026-04-15 21:08 -29.01918 -50.13227 19525 ft 392 kts 34°
2026-04-15 21:09 -28.99721 -50.11361 19928 ft 395 kts 34°
2026-04-15 21:09 -28.97511 -50.09484 20441 ft 394 kts 34°
2026-04-15 21:09 -28.95330 -50.07632 20947 ft 388 kts 34°
2026-04-15 21:09 -28.93163 -50.05793 21045 ft 388 kts 34°
2026-04-15 21:10 -28.91008 -50.03965 21059 ft 385 kts 34°
2026-04-15 21:10 -28.88861 -50.02146 21065 ft 383 kts 34°
2026-04-15 21:10 -28.86720 -50.00334 21079 ft 383 kts 34°
2026-04-15 21:10 -28.84574 -49.98519 21075 ft 385 kts 34°
2026-04-15 21:11 -28.82423 -49.96699 21074 ft 385 kts 34°
2026-04-15 21:11 -28.80265 -49.94875 21066 ft 386 kts 34°
2026-04-15 21:11 -28.78111 -49.93055 21064 ft 386 kts 34°
2026-04-15 21:11 -28.75982 -49.91254 21072 ft 386 kts 34°
2026-04-15 21:12 -28.73826 -49.89434 21067 ft 386 kts 34°
2026-04-15 21:12 -28.71665 -49.87612 21072 ft 386 kts 34°
2026-04-15 21:12 -28.69504 -49.85790 21068 ft 386 kts 34°
2026-04-15 21:12 -28.67352 -49.83972 21066 ft 385 kts 34°
2026-04-15 21:13 -28.65200 -49.82150 21067 ft 385 kts 34°
2026-04-15 21:13 -28.63057 -49.80335 21061 ft 384 kts 34°
2026-04-15 21:13 -28.60917 -49.78525 21069 ft 384 kts 34°
2026-04-15 21:13 -28.58774 -49.76711 21081 ft 383 kts 34°
2026-04-15 21:14 -28.56630 -49.74897 21075 ft 384 kts 34°
2026-04-15 21:14 -28.54483 -49.73082 21074 ft 384 kts 34°
2026-04-15 21:14 -28.52338 -49.71269 21085 ft 384 kts 34°
2026-04-15 21:14 -28.50187 -49.69453 21077 ft 385 kts 34°
2026-04-15 21:15 -28.48036 -49.67639 21083 ft 386 kts 34°
2026-04-15 21:15 -28.45963 -49.65721 21066 ft 381 kts 40°
2026-04-15 21:15 -28.44108 -49.63690 21059 ft 368 kts 42°
2026-04-15 21:15 -28.42346 -49.61643 21065 ft 356 kts 43°
2026-04-15 21:16 -28.40623 -49.59626 21072 ft 355 kts 43°
2026-04-15 21:16 -28.38892 -49.57621 20959 ft 358 kts 43°
2026-04-15 21:16 -28.37134 -49.55609 20691 ft 357 kts 42°
2026-04-15 21:16 -28.35377 -49.53614 20293 ft 356 kts 42°
2026-04-15 21:17 -28.33625 -49.51639 19912 ft 354 kts 42°
2026-04-15 21:17 -28.31879 -49.49676 19528 ft 352 kts 42°
2026-04-15 21:17 -28.30143 -49.47730 19121 ft 349 kts 42°
2026-04-15 21:17 -28.28422 -49.45801 18719 ft 348 kts 43°
2026-04-15 21:18 -28.26707 -49.43881 18312 ft 342 kts 43°
2026-04-15 21:18 -28.25044 -49.42020 17889 ft 339 kts 43°
2026-04-15 21:18 -28.23369 -49.40147 17485 ft 337 kts 43°
2026-04-15 21:18 -28.21705 -49.38287 17096 ft 335 kts 43°
2026-04-15 21:19 -28.20046 -49.36433 16709 ft 333 kts 43°
2026-04-15 21:19 -28.18408 -49.34604 16330 ft 330 kts 43°
2026-04-15 21:19 -28.16771 -49.32776 15952 ft 329 kts 43°
2026-04-15 21:19 -28.15160 -49.30978 15562 ft 321 kts 43°
2026-04-15 21:20 -28.13591 -49.29227 15194 ft 312 kts 43°
2026-04-15 21:20 -28.12082 -49.27545 14845 ft 304 kts 43°
2026-04-15 21:20 -28.10592 -49.25884 14494 ft 296 kts 43°
2026-04-15 21:20 -28.09122 -49.24246 14158 ft 289 kts 43°
2026-04-15 21:21 -28.07691 -49.22652 13844 ft 290 kts 43°
2026-04-15 21:21 -28.06263 -49.21062 13489 ft 294 kts 43°
2026-04-15 21:21 -28.04783 -49.19415 13145 ft 301 kts 43°
2026-04-15 21:21 -28.03279 -49.17741 12812 ft 303 kts 43°
2026-04-15 21:22 -28.01785 -49.16076 12494 ft 300 kts 43°
2026-04-15 21:22 -28.00299 -49.14423 12177 ft 297 kts 43°
2026-04-15 21:22 -27.98834 -49.12794 11850 ft 294 kts 43°
2026-04-15 21:22 -27.97378 -49.11176 11515 ft 293 kts 43°
2026-04-15 21:23 -27.95913 -49.09550 11006 ft 298 kts 43°
2026-04-15 21:23 -27.94437 -49.07911 10625 ft 298 kts 43°
2026-04-15 21:23 -27.92957 -49.06269 10333 ft 295 kts 43°
2026-04-15 21:23 -27.91510 -49.04664 10165 ft 288 kts 43°
2026-04-15 21:24 -27.90100 -49.03098 9917 ft 283 kts 43°
2026-04-15 21:24 -27.89166 -49.02063 9677 ft 283 kts 43°
2026-04-15 21:24 -27.87768 -49.00512 9330 ft 282 kts 43°
2026-04-15 21:24 -27.86365 -48.98958 8970 ft 282 kts 43°
2026-04-15 21:25 -27.84964 -48.97406 8624 ft 282 kts 43°
2026-04-15 21:25 -27.83564 -48.95857 8277 ft 281 kts 43°
2026-04-15 21:25 -27.82171 -48.94315 7989 ft 277 kts 43°
2026-04-15 21:25 -27.80811 -48.92810 7809 ft 271 kts 43°
2026-04-15 21:26 -27.79473 -48.91330 7592 ft 266 kts 43°
2026-04-15 21:26 -27.78158 -48.89877 7392 ft 262 kts 43°
2026-04-15 21:26 -27.76861 -48.88445 7207 ft 259 kts 43°
2026-04-15 21:26 -27.75593 -48.87043 7023 ft 259 kts 43°
2026-04-15 21:27 -27.74293 -48.85609 6863 ft 263 kts 43°
2026-04-15 21:27 -27.72977 -48.84156 6690 ft 266 kts 43°
2026-04-15 21:27 -27.71647 -48.82689 6492 ft 268 kts 43°
2026-04-15 21:27 -27.70316 -48.81220 6268 ft 267 kts 43°
2026-04-15 21:28 -27.68994 -48.79761 6075 ft 264 kts 43°
2026-04-15 21:28 -27.67686 -48.78319 5876 ft 260 kts 43°
2026-04-15 21:28 -27.66388 -48.76916 5624 ft 258 kts 39°
2026-04-15 21:28 -27.64889 -48.75773 5201 ft 259 kts 30°
2026-04-15 21:29 -27.63353 -48.74769 4765 ft 251 kts 29°
2026-04-15 21:29 -27.61858 -48.73790 4344 ft 244 kts 30°
2026-04-15 21:29 -27.60425 -48.72817 3937 ft 237 kts 36°
2026-04-15 21:29 -27.59483 -48.71350 3538 ft 233 kts 75°
2026-04-15 21:30 -27.59517 -48.69594 3220 ft 225 kts 101°
2026-04-15 21:30 -27.59946 -48.67928 2796 ft 219 kts 110°
2026-04-15 21:30 -27.60572 -48.66393 2418 ft 212 kts 115°
2026-04-15 21:30 -27.61288 -48.64970 2019 ft 206 kts 120°
2026-04-15 21:31 -27.62708 -48.62330 1442 ft 187 kts 120°
2026-04-15 21:31 -27.63360 -48.61116 1237 ft 176 kts 119°
2026-04-15 21:32 -27.64536 -48.58921 802 ft 149 kts 119°
2026-04-15 21:32 -27.65061 -48.57943 644 ft 144 kts 119°
2026-04-15 21:32 -27.65562 -48.56989 473 ft 143 kts 121°
2026-04-15 21:32 -27.66086 -48.56014 301 ft 145 kts 118°
2026-04-15 21:33 -27.66612 -48.55030 68 ft 148 kts 121°
2026-04-15 21:33 -27.67113 -48.54112 23 ft 119 kts 123°
2026-04-15 21:33 -27.67462 -48.53464 25 ft 73 kts 121°
2026-04-15 21:33 -27.67613 -48.53183 26 ft 22 kts 122°
2026-04-15 21:34 -27.67711 -48.53079 27 ft 16 kts 181°
2026-04-15 21:34 -27.67776 -48.53108 23 ft 10 kts 213°
2026-04-15 21:34 -27.67807 -48.53171 23 ft 10 kts 271°
2026-04-15 21:34 -27.67783 -48.53239 26 ft 9 kts 308°
2026-04-15 21:35 -27.67749 -48.53299 27 ft 9 kts 296°
2026-04-15 21:35 -27.67716 -48.53358 24 ft 9 kts 303°
2026-04-15 21:35 -27.67683 -48.53416 24 ft 9 kts 302°
2026-04-15 21:35 -27.67653 -48.53472 24 ft 8 kts 301°
2026-04-15 21:36 -27.67624 -48.53527 24 ft 8 kts 301°
2026-04-15 21:36 -27.67595 -48.53581 25 ft 8 kts 300°
2026-04-15 21:36 -27.67568 -48.53633 24 ft 8 kts 301°
2026-04-15 21:36 -27.67542 -48.53683 24 ft 7 kts 301°
2026-04-15 21:37 -27.67516 -48.53731 27 ft 7 kts 301°
2026-04-15 21:37 -27.67491 -48.53778 23 ft 7 kts 301°
2026-04-15 21:37 -27.67466 -48.53825 24 ft 9 kts 302°
2026-04-15 21:37 -27.67419 -48.53909 23 ft 14 kts 302°
2026-04-15 21:38 -27.67369 -48.54003 24 ft 14 kts 301°
2026-04-15 21:38 -27.67321 -48.54092 24 ft 13 kts 301°
2026-04-15 21:38 -27.67274 -48.54178 23 ft 13 kts 302°
2026-04-15 21:38 -27.67239 -48.54242 25 ft 6 kts 302°
2026-04-15 21:39 -27.67219 -48.54285 23 ft 6 kts 284°
2026-04-15 21:39 -27.67233 -48.54326 27 ft 6 kts 217°
2026-04-15 21:39 -27.67267 -48.54355 26 ft 6 kts 216°
2026-04-15 21:39 -27.67299 -48.54385 25 ft 6 kts 236°
2026-04-15 21:40 -27.67297 -48.54429 23 ft 6 kts 297°
2026-04-15 21:40 -27.67275 -48.54467 26 ft 6 kts 302°
2026-04-15 21:40 -27.67261 -48.54492 24 ft 0 kts 302°
2026-04-15 21:40 -27.67257 -48.54505 24 ft 4 kts 289°
2026-04-15 21:41 -27.67266 -48.54526 25 ft 3 kts 213°
2026-04-15 21:41 -27.67281 -48.54537 24 ft 3 kts 210°
2026-04-15 21:41 -27.67284 -48.54539 24 ft 0 kts 210°